Station Historical Data
Daily Summary for June 25, 2012 Units:  Metric    English   Both
« Previous Day
Next Day »
Daily Weekly Monthly Yearly Custom
  High: Low: Average:
Temperature: 35.2 °C 22.8 °C 28.9 °C
Dew Point: 19.7 °C 14 °C 16.8 °C
Humidity: 62% 34% 49%
Wind Speed: 20.9km/h 0km/h 6.8km/h
Wind Gust: 30.6km/h - -
Wind- - ESE
Pressure: 1009.4 hPa 1004.6 hPa -
Precipitation: 0 mm    
Historical Graphs
 
 
Tabular Data for June 25, 2012
Time Temperature Dew Point Pressure Wind Wind Speed Wind Gust Humidity Rainfall Rate (Hourly) Conditions
00:00 26.2 °C 14.6 °C 1009.4 hPa NW 3.2 km/h 6.4 km/h 49% 0 mm
00:05 26.2 °C 14.6 °C 1009 hPa NNW 4.8 km/h 8 km/h 49% 0 mm
00:10 26.1 °C 14.8 °C 1009 hPa North 4.8 km/h 6.4 km/h 50% 0 mm
00:15 25.9 °C 14.7 °C 1009.4 hPa North 4.8 km/h 6.4 km/h 50% 0 mm
00:20 25.9 °C 14.7 °C 1009.4 hPa North 3.2 km/h 8 km/h 50% 0 mm
00:25 25.8 °C 14.6 °C 1009.4 hPa NNW 1.6 km/h 6.4 km/h 50% 0 mm
00:30 25.8 °C 14.6 °C 1009.4 hPa NNE 3.2 km/h 8 km/h 50% 0 mm
00:35 25.8 °C 14.6 °C 1009.4 hPa NE 3.2 km/h 8 km/h 50% 0 mm
00:40 25.8 °C 14.6 °C 1009.4 hPa North 3.2 km/h 4.8 km/h 50% 0 mm
00:45 25.8 °C 14.6 °C 1009 hPa NNE 4.8 km/h 8 km/h 50% 0 mm
00:50 25.8 °C 14.6 °C 1009 hPa NNE 3.2 km/h 6.4 km/h 50% 0 mm
00:55 25.8 °C 14.6 °C 1009 hPa NNE 3.2 km/h 6.4 km/h 50% 0 mm
01:00 25.8 °C 14.3 °C 1009 hPa NNE 1.6 km/h 6.4 km/h 49% 0 mm
01:05 25.7 °C 14.6 °C 1009 hPa NNE 4.8 km/h 4.8 km/h 50% 0 mm
01:10 25.7 °C 14.6 °C 1009 hPa NNE 3.2 km/h 6.4 km/h 50% 0 mm
01:15 25.7 °C 14.5 °C 1009 hPa NNE 1.6 km/h 4.8 km/h 50% 0 mm
01:20 25.6 °C 14.4 °C 1009 hPa NE 3.2 km/h 6.4 km/h 50% 0 mm
01:25 25.5 °C 14.3 °C 1009 hPa NE 4.8 km/h 4.8 km/h 50% 0 mm
01:30 25.5 °C 14.3 °C 1009 hPa NNE 3.2 km/h 6.4 km/h 50% 0 mm
01:35 25.5 °C 14.3 °C 1009 hPa NE 4.8 km/h 4.8 km/h 50% 0 mm
01:40 25.4 °C 14.3 °C 1009 hPa NE 3.2 km/h 8 km/h 50% 0 mm
01:45 25.4 °C 14.3 °C 1009 hPa NNE 3.2 km/h 4.8 km/h 50% 0 mm
01:50 25.3 °C 14.2 °C 1008.7 hPa NE 4.8 km/h 6.4 km/h 50% 0 mm
01:55 25.3 °C 14.1 °C 1008.7 hPa NNE 1.6 km/h 4.8 km/h 50% 0 mm
02:00 25.2 °C 14.3 °C 1008.7 hPa NNE 1.6 km/h 4.8 km/h 51% 0 mm
02:05 25.1 °C 14.2 °C 1008.7 hPa NNE 1.6 km/h 4.8 km/h 51% 0 mm
02:10 24.9 °C 14.1 °C 1008.7 hPa NE 1.6 km/h 3.2 km/h 51% 0 mm
02:16 24.8 °C 14.3 °C 1008.7 hPa North 1.6 km/h 4.8 km/h 52% 0 mm
02:21 24.7 °C 14.2 °C 1008.4 hPa Calm   3.2 km/h 52% 0 mm
02:26 24.5 °C 14 °C 1008.4 hPa NNE 1.6 km/h 1.6 km/h 52% 0 mm
02:31 24.4 °C 14.2 °C 1008.4 hPa NE 1.6 km/h 1.6 km/h 53% 0 mm
02:36 24.2 °C 14.1 °C 1008.4 hPa NNE 1.6 km/h 3.2 km/h 53% 0 mm
02:41 24.1 °C 14.2 °C 1008.4 hPa NE 3.2 km/h 3.2 km/h 54% 0 mm
02:46 24.1 °C 14.2 °C 1008.4 hPa NE 3.2 km/h 4.8 km/h 54% 0 mm
02:51 24.1 °C 14.2 °C 1008.4 hPa NNE 3.2 km/h 4.8 km/h 54% 0 mm
02:56 24.1 °C 14.2 °C 1008.4 hPa NE 1.6 km/h 4.8 km/h 54% 0 mm
03:01 24.1 °C 14.2 °C 1008.4 hPa NNE 1.6 km/h 3.2 km/h 54% 0 mm
03:06 24 °C 14.1 °C 1008.4 hPa North 3.2 km/h 4.8 km/h 54% 0 mm
03:11 23.8 °C 14.3 °C 1008.4 hPa North 1.6 km/h 4.8 km/h 55% 0 mm
03:16 23.7 °C 14.1 °C 1008.4 hPa NNE 1.6 km/h 4.8 km/h 55% 0 mm
03:21 23.6 °C 14.3 °C 1008.4 hPa NNE 3.2 km/h 3.2 km/h 56% 0 mm
03:27 23.4 °C 14.2 °C 1008 hPa NNW 3.2 km/h 4.8 km/h 56% 0 mm
03:31 23.3 °C 14.3 °C 1008 hPa North 4.8 km/h 4.8 km/h 57% 0 mm
03:37 23.3 °C 14.3 °C 1008 hPa NNW 4.8 km/h 4.8 km/h 57% 0 mm
03:42 23.2 °C 14.4 °C 1008 hPa NNW 3.2 km/h 4.8 km/h 58% 0 mm
03:47 23.2 °C 14.5 °C 1008 hPa North 4.8 km/h 4.8 km/h 58% 0 mm
03:52 23.3 °C 14.6 °C 1008 hPa NNW 3.2 km/h 6.4 km/h 58% 0 mm
03:57 23.3 °C 14.6 °C 1008 hPa NNE 4.8 km/h 4.8 km/h 58% 0 mm
04:02 23.4 °C 14.4 °C 1008 hPa NW 3.2 km/h 4.8 km/h 57% 0 mm
04:07 23.6 °C 14.6 °C 1008 hPa NNW 3.2 km/h 6.4 km/h 57% 0 mm
04:12 23.6 °C 14.6 °C 1008 hPa North 3.2 km/h 6.4 km/h 57% 0 mm
04:17 23.6 °C 14.6 °C 1008 hPa NW 6.4 km/h 9.7 km/h 57% 0 mm
04:22 23.6 °C 14.6 °C 1008 hPa North 4.8 km/h 6.4 km/h 57% 0 mm
04:27 23.7 °C 14.7 °C 1008 hPa NNE 3.2 km/h 6.4 km/h 57% 0 mm
04:32 23.8 °C 14.8 °C 1008 hPa NNE 6.4 km/h 6.4 km/h 57% 0 mm
04:37 23.9 °C 14.9 °C 1008 hPa North 4.8 km/h 8 km/h 57% 0 mm
04:42 23.9 °C 14.6 °C 1008 hPa NNE 1.6 km/h 8 km/h 56% 0 mm
04:47 23.9 °C 14.9 °C 1008 hPa NNE 4.8 km/h 9.7 km/h 57% 0 mm
04:52 23.9 °C 14.9 °C 1008 hPa NNE 6.4 km/h 6.4 km/h 57% 0 mm
04:57 23.8 °C 14.8 °C 1008 hPa NNE 3.2 km/h 6.4 km/h 57% 0 mm
05:02 23.8 °C 14.8 °C 1008 hPa NE 3.2 km/h 6.4 km/h 57% 0 mm
05:08 23.7 °C 14.7 °C 1008 hPa NNW 1.6 km/h 8 km/h 57% 0 mm
05:13 23.6 °C 14.9 °C 1008 hPa NE 4.8 km/h 6.4 km/h 58% 0 mm
05:18 23.6 °C 14.8 °C 1008 hPa NNE 3.2 km/h 6.4 km/h 58% 0 mm
05:23 23.5 °C 14.8 °C 1008 hPa NE 4.8 km/h 8 km/h 58% 0 mm
05:28 23.5 °C 14.8 °C 1008 hPa NNE 6.4 km/h 8 km/h 58% 0 mm
05:33 23.4 °C 14.9 °C 1008 hPa NNE 6.4 km/h 9.7 km/h 59% 0 mm
05:38 23.3 °C 14.9 °C 1008 hPa NE 4.8 km/h 6.4 km/h 59% 0 mm
05:43 23.3 °C 14.9 °C 1008 hPa NE 3.2 km/h 8 km/h 59% 0 mm
05:48 23.3 °C 15.1 °C 1008.4 hPa NE 3.2 km/h 4.8 km/h 60% 0 mm
05:53 23.3 °C 15.1 °C 1008.4 hPa North 3.2 km/h 6.4 km/h 60% 0 mm
05:58 23.3 °C 15.1 °C 1008.4 hPa NNE 3.2 km/h 4.8 km/h 60% 0 mm
06:03 23.2 °C 15 °C 1008.4 hPa NNE 3.2 km/h 4.8 km/h 60% 0 mm
06:08 23.1 °C 15.1 °C 1008.4 hPa NNE 4.8 km/h 4.8 km/h 61% 0 mm
06:13 22.9 °C 15 °C 1008.4 hPa NNE 1.6 km/h 6.4 km/h 61% 0 mm
06:18 22.9 °C 15 °C 1008.4 hPa NNE 1.6 km/h 4.8 km/h 61% 0 mm
06:23 22.8 °C 15.1 °C 1008.4 hPa NNE 4.8 km/h 4.8 km/h 62% 0 mm
06:28 22.8 °C 15.2 °C 1008.4 hPa NNE 3.2 km/h 6.4 km/h 62% 0 mm
06:33 22.8 °C 15.2 °C 1008.4 hPa NE 3.2 km/h 6.4 km/h 62% 0 mm
06:38 22.8 °C 15.2 °C 1008.7 hPa NE 4.8 km/h 8 km/h 62% 0 mm
06:43 22.9 °C 15 °C 1008.7 hPa NE 4.8 km/h 6.4 km/h 61% 0 mm
06:48 22.9 °C 15 °C 1008.7 hPa NNE 3.2 km/h 6.4 km/h 61% 0 mm
06:53 23.1 °C 15.1 °C 1008.7 hPa NE 3.2 km/h 8 km/h 61% 0 mm
06:58 23.1 °C 15.2 °C 1008.7 hPa ENE 3.2 km/h 6.4 km/h 61% 0 mm
07:03 23.2 °C 15.3 °C 1008.7 hPa NE 3.2 km/h 9.7 km/h 61% 0 mm
07:08 23.3 °C 15.4 °C 1009 hPa NE 4.8 km/h 9.7 km/h 61% 0 mm
07:13 23.4 °C 15.4 °C 1009 hPa NE 4.8 km/h 8 km/h 61% 0 mm
07:18 23.4 °C 15.5 °C 1009 hPa NNE 6.4 km/h 9.7 km/h 61% 0 mm
07:23 23.6 °C 15.6 °C 1009 hPa NNE 8 km/h 9.7 km/h 61% 0 mm
07:28 23.7 °C 15.7 °C 1009 hPa NNE 8 km/h 9.7 km/h 61% 0 mm
07:33 23.7 °C 15.8 °C 1008.7 hPa NE 4.8 km/h 8 km/h 61% 0 mm
07:38 23.8 °C 15.8 °C 1008.7 hPa NE 3.2 km/h 8 km/h 61% 0 mm
07:43 23.8 °C 15.9 °C 1008.7 hPa NE 6.4 km/h 9.7 km/h 61% 0 mm
07:48 24 °C 16 °C 1008.7 hPa NNE 4.8 km/h 8 km/h 61% 0 mm
07:53 24.2 °C 16.2 °C 1008.7 hPa NNE 8 km/h 8 km/h 61% 0 mm
07:58 24.3 °C 16.3 °C 1008.7 hPa North 3.2 km/h 4.8 km/h 61% 0 mm
08:03 24.4 °C 16.4 °C 1008.7 hPa NNE 3.2 km/h 8 km/h 61% 0 mm
08:08 24.6 °C 16.6 °C 1009 hPa NNE 3.2 km/h 6.4 km/h 61% 0 mm
08:13 24.8 °C 17 °C 1009 hPa North 3.2 km/h 8 km/h 62% 0 mm
08:18 24.9 °C 17.1 °C 1009 hPa NE 3.2 km/h 8 km/h 62% 0 mm
08:23 25.1 °C 17 °C 1009 hPa NNE 4.8 km/h 6.4 km/h 61% 0 mm
08:28 25.3 °C 17.3 °C 1009 hPa NE 4.8 km/h 8 km/h 61% 0 mm
08:33 25.5 °C 16.9 °C 1009 hPa NE 9.7 km/h 9.7 km/h 59% 0 mm
08:38 25.8 °C 17.4 °C 1009 hPa ENE 4.8 km/h 6.4 km/h 60% 0 mm
08:43 26 °C 16.8 °C 1009 hPa ENE 4.8 km/h 12.9 km/h 57% 0 mm
08:48 26.2 °C 17.3 °C 1009 hPa NNE 3.2 km/h 4.8 km/h 58% 0 mm
08:54 26.5 °C 17.3 °C 1009 hPa NE 3.2 km/h 6.4 km/h 57% 0 mm
08:59 26.7 °C 16.9 °C 1009 hPa ENE 6.4 km/h 8 km/h 55% 0 mm
09:04 26.9 °C 17.1 °C 1009 hPa NE 8 km/h 9.7 km/h 55% 0 mm
09:09 27.2 °C 17.1 °C 1009 hPa NE 4.8 km/h 8 km/h 54% 0 mm
09:14 27.4 °C 17.3 °C 1009 hPa NE 6.4 km/h 8 km/h 54% 0 mm
09:19 27.6 °C 17.5 °C 1009 hPa NE 4.8 km/h 6.4 km/h 54% 0 mm
09:24 27.8 °C 17.7 °C 1009 hPa East 1.6 km/h 6.4 km/h 54% 0 mm
09:29 28.1 °C 17.7 °C 1009 hPa NE 1.6 km/h 6.4 km/h 53% 0 mm
09:34 28.2 °C 17.4 °C 1009 hPa East 8 km/h 8 km/h 52% 0 mm
09:39 28.3 °C 17.5 °C 1009 hPa ENE 4.8 km/h 8 km/h 52% 0 mm
09:44 28.5 °C 17.7 °C 1009 hPa NE 3.2 km/h 6.4 km/h 52% 0 mm
09:49 28.6 °C 18.1 °C 1009 hPa NE 6.4 km/h 6.4 km/h 53% 0 mm
09:54 28.9 °C 18.1 °C 1009 hPa East 3.2 km/h 8 km/h 52% 0 mm
09:59 29.1 °C 18.8 °C 1009 hPa NNE 4.8 km/h 6.4 km/h 54% 0 mm
10:04 29.4 °C 18.5 °C 1009 hPa North 1.6 km/h 6.4 km/h 52% 0 mm
10:09 29.4 °C 18.3 °C 1009 hPa NNW 4.8 km/h 8 km/h 51% 0 mm
10:14 29.4 °C 18.5 °C 1009 hPa NE 3.2 km/h 6.4 km/h 52% 0 mm
10:19 29.4 °C 18.6 °C 1009 hPa NNW 4.8 km/h 8 km/h 52% 0 mm
10:24 29.6 °C 18.4 °C 1009 hPa NNE 6.4 km/h 8 km/h 51% 0 mm
10:29 29.7 °C 18.8 °C 1009 hPa ENE 3.2 km/h 8 km/h 52% 0 mm
10:34 29.9 °C 19 °C 1008.7 hPa NNE 3.2 km/h 6.4 km/h 52% 0 mm
10:39 30.1 °C 19.7 °C 1008.7 hPa NE 4.8 km/h 6.4 km/h 54% 0 mm
10:44 30.1 °C 18.2 °C 1008.7 hPa NE 4.8 km/h 8 km/h 49% 0 mm
10:49 30.3 °C 18.1 °C 1008.7 hPa NNW 6.4 km/h 8 km/h 48% 0 mm
10:54 30.4 °C 18.2 °C 1008.7 hPa North 3.2 km/h 9.7 km/h 48% 0 mm
10:59 30.7 °C 18.4 °C 1008.7 hPa NE 6.4 km/h 11.3 km/h 48% 0 mm
11:04 30.7 °C 18.4 °C 1008.7 hPa NE 4.8 km/h 11.3 km/h 48% 0 mm
11:09 30.7 °C 17.8 °C 1008.7 hPa NE 6.4 km/h 12.9 km/h 46% 0 mm
11:14 30.9 °C 18.7 °C 1008.7 hPa NE 6.4 km/h 12.9 km/h 48% 0 mm
11:19 30.9 °C 18 °C 1008.7 hPa NNE 6.4 km/h 9.7 km/h 46% 0 mm
11:24 31.2 °C 18.2 °C 1008.7 hPa NE 6.4 km/h 11.3 km/h 46% 0 mm
11:29 31.2 °C 17.8 °C 1008.7 hPa ENE 8 km/h 14.5 km/h 45% 0 mm
11:34 31.4 °C 18.1 °C 1008.7 hPa NE 6.4 km/h 12.9 km/h 45% 0 mm
11:39 31.5 °C 18.2 °C 1008.4 hPa East 1.6 km/h 14.5 km/h 45% 0 mm
11:44 31.7 °C 17.6 °C 1008.4 hPa NE 9.7 km/h 14.5 km/h 43% 0 mm
11:49 31.8 °C 16.9 °C 1008.4 hPa NNE 12.9 km/h 16.1 km/h 41% 0 mm
11:54 31.8 °C 16.6 °C 1008.4 hPa ENE 9.7 km/h 16.1 km/h 40% 0 mm
11:59 31.8 °C 16.9 °C 1008.4 hPa ENE 4.8 km/h 16.1 km/h 41% 0 mm
12:04 31.9 °C 16.7 °C 1008 hPa ENE 3.2 km/h 11.3 km/h 40% 0 mm
12:09 32.2 °C 17.7 °C 1008.4 hPa NNE 8 km/h 12.9 km/h 42% 0 mm
12:14 32.2 °C 17.7 °C 1008 hPa NNE 9.7 km/h 12.9 km/h 42% 0 mm
12:19 32.2 °C 17.7 °C 1008 hPa NNE 8 km/h 14.5 km/h 42% 0 mm
12:24 32.3 °C 17 °C 1008 hPa NE 3.2 km/h 9.7 km/h 40% 0 mm
12:29 32.6 °C 17.2 °C 1008 hPa NE 3.2 km/h 9.7 km/h 40% 0 mm
12:34 32.6 °C 16.8 °C 1008 hPa NE 8 km/h 14.5 km/h 39% 0 mm
12:39 32.7 °C 17.3 °C 1008 hPa NE 4.8 km/h 9.7 km/h 40% 0 mm
12:44 32.8 °C 15.8 °C 1008 hPa NNE 4.8 km/h 19.3 km/h 36% 0 mm
12:50 32.9 °C 16.8 °C 1008 hPa NE 8 km/h 17.7 km/h 38% 0 mm
12:55 33.1 °C 16.9 °C 1007.7 hPa ENE 9.7 km/h 11.3 km/h 38% 0 mm
13:00 33.3 °C 16.2 °C 1007.7 hPa NE 14.5 km/h 16.1 km/h 36% 0 mm
13:05 33.2 °C 17 °C 1007.7 hPa North 4.8 km/h 16.1 km/h 38% 0 mm
13:10 33.6 °C 17.3 °C 1007.7 hPa NE 12.9 km/h 12.9 km/h 38% 0 mm
13:15 33.4 °C 16.7 °C 1007.7 hPa ENE 6.4 km/h 16.1 km/h 37% 0 mm
13:20 33.4 °C 18 °C 1007.3 hPa East 6.4 km/h 16.1 km/h 40% 0 mm
13:25 33.6 °C 17.3 °C 1007.3 hPa NNW 4.8 km/h 17.7 km/h 38% 0 mm
13:30 33.7 °C 17 °C 1007.3 hPa NNE 8 km/h 22.5 km/h 37% 0 mm
13:35 33.8 °C 17.9 °C 1007.3 hPa NE 12.9 km/h 22.5 km/h 39% 0 mm
13:40 33.8 °C 17.1 °C 1007.3 hPa ENE 14.5 km/h 19.3 km/h 37% 0 mm
13:45 33.9 °C 17.2 °C 1007.3 hPa NE 12.9 km/h 16.1 km/h 37% 0 mm
13:50 33.8 °C 17.1 °C 1007.3 hPa NNE 11.3 km/h 19.3 km/h 37% 0 mm
13:55 33.9 °C 17.6 °C 1007.3 hPa NNE 9.7 km/h 22.5 km/h 38% 0 mm
14:00 34 °C 16.8 °C 1007.3 hPa NNE 11.3 km/h 22.5 km/h 36% 0 mm
14:05 34.2 °C 17 °C 1007.3 hPa NNW 4.8 km/h 14.5 km/h 36% 0 mm
14:10 34.2 °C 17 °C 1007 hPa NE 6.4 km/h 16.1 km/h 36% 0 mm
14:15 34.3 °C 17.5 °C 1007 hPa North 16.1 km/h 16.1 km/h 37% 0 mm
14:20 34.4 °C 17.2 °C 1006.7 hPa NE 14.5 km/h 22.5 km/h 36% 0 mm
14:25 34.4 °C 17.2 °C 1006.7 hPa ENE 9.7 km/h 17.7 km/h 36% 0 mm
14:30 34.4 °C 17.2 °C 1006.7 hPa NE 11.3 km/h 22.5 km/h 36% 0 mm
14:35 34.3 °C 17.6 °C 1006.7 hPa NNE 9.7 km/h 19.3 km/h 37% 0 mm
14:40 34.6 °C 17.8 °C 1006.3 hPa North 9.7 km/h 19.3 km/h 37% 0 mm
14:45 34.9 °C 17.7 °C 1006.3 hPa North 16.1 km/h 20.9 km/h 36% 0 mm
14:50 34.8 °C 17.9 °C 1006.3 hPa NNW 11.3 km/h 16.1 km/h 37% 0 mm
14:55 34.4 °C 17.2 °C 1006.3 hPa NNW 9.7 km/h 20.9 km/h 36% 0 mm
15:00 34.4 °C 17.2 °C 1006.3 hPa North 9.7 km/h 19.3 km/h 36% 0 mm
15:05 35 °C 16.8 °C 1006 hPa NNW 14.5 km/h 25.7 km/h 34% 0 mm
15:10 34.8 °C 17.1 °C 1006 hPa North 17.7 km/h 19.3 km/h 35% 0 mm
15:15 34.8 °C 17.5 °C 1006 hPa NNW 20.9 km/h 29 km/h 36% 0 mm
15:20 34.8 °C 17.1 °C 1006 hPa NNE 11.3 km/h 22.5 km/h 35% 0 mm
15:25 34.9 °C 17.2 °C 1006 hPa NNE 19.3 km/h 19.3 km/h 35% 0 mm
15:30 35.2 °C 17.4 °C 1006 hPa NE 14.5 km/h 17.7 km/h 35% 0 mm
15:35 35 °C 17.7 °C 1006 hPa NE 11.3 km/h 20.9 km/h 36% 0 mm
15:40 34.8 °C 16.6 °C 1006 hPa NNE 11.3 km/h 24.1 km/h 34% 0 mm
15:45 34.4 °C 17.2 °C 1006 hPa NNE 12.9 km/h 16.1 km/h 36% 0 mm
15:50 34.8 °C 18.4 °C 1006 hPa ENE 6.4 km/h 17.7 km/h 38% 0 mm
15:55 34.8 °C 18 °C 1005.6 hPa NNE 11.3 km/h 17.7 km/h 37% 0 mm
16:00 34.6 °C 17.4 °C 1005.6 hPa NW 4.8 km/h 20.9 km/h 36% 0 mm
16:05 34.3 °C 17.9 °C 1005.6 hPa NNE 9.7 km/h 14.5 km/h 38% 0 mm
16:10 34.5 °C 17.7 °C 1005.6 hPa NE 9.7 km/h 17.7 km/h 37% 0 mm
16:15 34.7 °C 18.7 °C 1005.6 hPa NNE 19.3 km/h 19.3 km/h 39% 0 mm
16:20 34.9 °C 18.5 °C 1005.6 hPa NNE 11.3 km/h 20.9 km/h 38% 0 mm
16:25 34.6 °C 17.8 °C 1005.6 hPa NNE 14.5 km/h 22.5 km/h 37% 0 mm
16:30 34.6 °C 17.8 °C 1005.3 hPa NNW 12.9 km/h 25.7 km/h 37% 0 mm
16:35 34.7 °C 18.3 °C 1005.3 hPa NW 16.1 km/h 24.1 km/h 38% 0 mm
16:40 34.4 °C 17.7 °C 1005.3 hPa North 17.7 km/h 20.9 km/h 37% 0 mm
16:45 34.6 °C 17.8 °C 1005.3 hPa NNE 11.3 km/h 20.9 km/h 37% 0 mm
16:50 34.7 °C 18.7 °C 1005.3 hPa NNE 11.3 km/h 16.1 km/h 39% 0 mm
16:55 34.8 °C 18.4 °C 1005.3 hPa North 17.7 km/h 22.5 km/h 38% 0 mm
17:00 35 °C 18.6 °C 1005.3 hPa NW 17.7 km/h 22.5 km/h 38% 0 mm
17:05 34.7 °C 17.9 °C 1005 hPa NW 20.9 km/h 30.6 km/h 37% 0 mm
17:10 34.7 °C 17.8 °C 1005 hPa NNW 9.7 km/h 22.5 km/h 37% 0 mm
17:15 34.8 °C 19.2 °C 1005 hPa North 8 km/h 29 km/h 40% 0 mm
17:20 34.7 °C 17.9 °C 1005 hPa NNE 19.3 km/h 27.4 km/h 37% 0 mm
17:25 34.6 °C 18.2 °C 1005 hPa North 12.9 km/h 17.7 km/h 38% 0 mm
17:31 34.6 °C 18.6 °C 1005 hPa North 9.7 km/h 22.5 km/h 39% 0 mm
17:36 34.7 °C 18.3 °C 1005 hPa NNW 14.5 km/h 19.3 km/h 38% 0 mm
17:41 34.7 °C 18.3 °C 1005 hPa North 17.7 km/h 19.3 km/h 38% 0 mm
17:46 34.5 °C 18.1 °C 1005 hPa NW 11.3 km/h 22.5 km/h 38% 0 mm
17:51 34.4 °C 18.5 °C 1005 hPa NE 14.5 km/h 22.5 km/h 39% 0 mm
17:56 34.5 °C 18.6 °C 1005 hPa ENE 12.9 km/h 20.9 km/h 39% 0 mm
18:01 34.4 °C 18.1 °C 1005 hPa ESE 6.4 km/h 22.5 km/h 38% 0 mm
18:06 34.3 °C 18.4 °C 1005 hPa North 9.7 km/h 12.9 km/h 39% 0 mm
18:11 34.4 °C 18.5 °C 1005 hPa North 19.3 km/h 20.9 km/h 39% 0 mm
18:16 34.4 °C 18.4 °C 1004.6 hPa NNE 19.3 km/h 19.3 km/h 39% 0 mm
18:21 34.3 °C 18.3 °C 1005 hPa North 17.7 km/h 25.7 km/h 39% 0 mm
18:26 34.2 °C 18.3 °C 1004.6 hPa NNE 14.5 km/h 14.5 km/h 39% 0 mm
18:31 34.1 °C 18.2 °C 1005 hPa NNW 16.1 km/h 22.5 km/h 39% 0 mm
18:36 34 °C 18.1 °C 1005 hPa North 16.1 km/h 25.7 km/h 39% 0 mm
18:42 34 °C 18.5 °C 1005 hPa NNE 8 km/h 16.1 km/h 40% 0 mm
18:47 34 °C 18.1 °C 1005 hPa NNE 9.7 km/h 17.7 km/h 39% 0 mm
18:52 33.9 °C 18.8 °C 1005 hPa North 20.9 km/h 24.1 km/h 41% 0 mm
18:57 33.7 °C 18.2 °C 1005 hPa NNW 16.1 km/h 25.7 km/h 40% 0 mm
19:02 33.6 °C 18.1 °C 1005 hPa NNW 11.3 km/h 22.5 km/h 40% 0 mm
19:07 33.4 °C 18.4 °C 1005 hPa North 11.3 km/h 25.7 km/h 41% 0 mm
19:12 33.4 °C 18.4 °C 1005 hPa NNE 6.4 km/h 17.7 km/h 41% 0 mm
19:17 33.4 °C 17.9 °C 1005 hPa North 14.5 km/h 22.5 km/h 40% 0 mm
19:22 33.3 °C 18.3 °C 1005 hPa NW 9.7 km/h 14.5 km/h 41% 0 mm
19:27 33.2 °C 18.2 °C 1005 hPa NNW 11.3 km/h 20.9 km/h 41% 0 mm
19:32 33.1 °C 18.5 °C 1005 hPa NNW 9.7 km/h 17.7 km/h 42% 0 mm
19:37 32.9 °C 17.9 °C 1005 hPa NNW 4.8 km/h 19.3 km/h 41% 0 mm
19:42 32.8 °C 18.2 °C 1005 hPa North 4.8 km/h 20.9 km/h 42% 0 mm
19:47 32.8 °C 18.6 °C 1005 hPa NNE 16.1 km/h 16.1 km/h 43% 0 mm
19:52 32.6 °C 18.4 °C 1005 hPa NW 19.3 km/h 19.3 km/h 43% 0 mm
19:57 32.4 °C 18.6 °C 1005 hPa NNW 11.3 km/h 14.5 km/h 44% 0 mm
20:02 32.3 °C 18.6 °C 1005 hPa NNW 8 km/h 11.3 km/h 44% 0 mm
20:07 32.2 °C 18.7 °C 1005 hPa NNW 17.7 km/h 19.3 km/h 45% 0 mm
20:12 32.1 °C 18.3 °C 1005 hPa North 12.9 km/h 14.5 km/h 44% 0 mm
20:17 32 °C 18.6 °C 1005 hPa NW 9.7 km/h 12.9 km/h 45% 0 mm
20:22 31.9 °C 18.1 °C 1005 hPa NNE 11.3 km/h 12.9 km/h 44% 0 mm
20:27 31.7 °C 18.3 °C 1005 hPa North 6.4 km/h 12.9 km/h 45% 0 mm
20:32 31.6 °C 18.2 °C 1005 hPa North 8 km/h 11.3 km/h 45% 0 mm
20:37 31.4 °C 18.1 °C 1005 hPa NNW 6.4 km/h 16.1 km/h 45% 0 mm
20:43 31.2 °C 18.2 °C 1004.6 hPa NW 6.4 km/h 14.5 km/h 46% 0 mm
20:48 31 °C 18.4 °C 1004.6 hPa NNW 4.8 km/h 9.7 km/h 47% 0 mm
20:53 30.7 °C 18.4 °C 1005 hPa NNW 6.4 km/h 9.7 km/h 48% 0 mm
20:58 30.4 °C 18.2 °C 1005 hPa NNW 4.8 km/h 8 km/h 48% 0 mm
21:03 30.2 °C 18.3 °C 1004.6 hPa NNW 4.8 km/h 6.4 km/h 49% 0 mm
21:08 29.9 °C 18.4 °C 1005 hPa NNW 3.2 km/h 8 km/h 50% 0 mm
21:13 29.7 °C 18.2 °C 1005 hPa North 3.2 km/h 6.4 km/h 50% 0 mm
21:18 29.5 °C 18.3 °C 1005 hPa NNE 4.8 km/h 6.4 km/h 51% 0 mm
21:23 29.4 °C 18.2 °C 1005 hPa North 4.8 km/h 6.4 km/h 51% 0 mm
21:28 29.3 °C 18.1 °C 1005 hPa North 4.8 km/h 6.4 km/h 51% 0 mm
21:33 29.2 °C 18.3 °C 1005 hPa NNW 6.4 km/h 11.3 km/h 52% 0 mm
21:38 29.2 °C 18.3 °C 1005.3 hPa NNW 4.8 km/h 9.7 km/h 52% 0 mm
21:43 29.1 °C 18.2 °C 1005 hPa North 4.8 km/h 6.4 km/h 52% 0 mm
21:48 28.9 °C 18.4 °C 1005 hPa North 3.2 km/h 9.7 km/h 53% 0 mm
21:53 28.8 °C 18.3 °C 1005.3 hPa North 4.8 km/h 4.8 km/h 53% 0 mm
21:58 28.6 °C 18.3 °C 1005.3 hPa NNW 1.6 km/h 4.8 km/h 54% 0 mm
22:03 28.3 °C 18.2 °C 1005.3 hPa NNW 1.6 km/h 3.2 km/h 54% 0 mm
22:08 28.1 °C 18.2 °C 1005.3 hPa North 3.2 km/h 3.2 km/h 55% 0 mm
22:13 27.9 °C 18.3 °C 1005.6 hPa North 1.6 km/h 3.2 km/h 56% 0 mm
22:18 27.8 °C 18.2 °C 1005.6 hPa Calm   3.2 km/h 56% 0 mm
22:23 27.6 °C 18.3 °C 1005.6 hPa NNE 1.6 km/h 3.2 km/h 57% 0 mm
22:28 27.6 °C 18.3 °C 1005.6 hPa North 1.6 km/h 4.8 km/h 57% 0 mm
22:33 27.5 °C 18.2 °C 1005.6 hPa North 4.8 km/h 4.8 km/h 57% 0 mm
22:38 27.4 °C 18.4 °C 1006 hPa NNW 4.8 km/h 4.8 km/h 58% 0 mm
22:43 27.4 °C 18.4 °C 1006 hPa North 3.2 km/h 4.8 km/h 58% 0 mm
22:48 27.3 °C 18.3 °C 1006 hPa North 6.4 km/h 6.4 km/h 58% 0 mm
22:53 27.3 °C 18.6 °C 1006 hPa NNW 3.2 km/h 6.4 km/h 59% 0 mm
22:58 27.2 °C 18.5 °C 1006 hPa NNW 3.2 km/h 6.4 km/h 59% 0 mm
23:03 27.2 °C 18.4 °C 1006 hPa NNE 6.4 km/h 6.4 km/h 59% 0 mm
23:08 27.1 °C 18.7 °C 1006 hPa North 4.8 km/h 6.4 km/h 60% 0 mm
23:13 27.1 °C 18.6 °C 1006 hPa North 6.4 km/h 8 km/h 60% 0 mm
23:18 27 °C 18.6 °C 1006 hPa NNW 3.2 km/h 11.3 km/h 60% 0 mm
23:23 26.9 °C 18.5 °C 1006 hPa NNE 1.6 km/h 6.4 km/h 60% 0 mm
23:28 26.9 °C 18.7 °C 1006 hPa NNE 3.2 km/h 4.8 km/h 61% 0 mm
23:33 26.8 °C 18.7 °C 1006 hPa NNW 1.6 km/h 4.8 km/h 61% 0 mm
23:38 26.7 °C 18.6 °C 1006.3 hPa Calm   3.2 km/h 61% 0 mm
23:43 26.7 °C 18.8 °C 1006 hPa Calm   6.4 km/h 62% 0 mm
23:48 26.6 °C 18.7 °C 1006.3 hPa NNE 6.4 km/h 6.4 km/h 62% 0 mm
23:53 26.5 °C 18.6 °C 1006.3 hPa North 6.4 km/h 8 km/h 62% 0 mm
23:58 26.6 °C 18.7 °C 1006.3 hPa NE 6.4 km/h 11.3 km/h 62% 0 mm
Compliments of Weather Underground